Station MROS1 - 8661070 - Springmaid Pier, SC Image indicating link to RSS feed of recent meteorological observations for station MROS1


Conditions at MROS1 as of
(10:48 am EDT)
1448 GMT on 04/15/2024:
     

Click on the graph icon in the table below to see a time series plot of the last five days of that observation.

5-day plot - Wind Direction Wind Direction (WDIR):WNW ( 300 deg true )
5-day plot - Wind Speed Wind Speed (WSPD): 7.0 kts
5-day plot - Wind Gust Wind Gust (GST): 13.0 kts
5-day plot - Atmospheric Pressure Atmospheric Pressure (PRES):30.04 in
5-day plot - Air Temperature Air Temperature (ATMP): 77.0 °F
5-day plot - Water Temperature Water Temperature (WTMP): 64.8 °F
5-day plot - Wind Speed at 10 Meters Wind Speed at 10 meters (WSPD10M): 7.8 kts
5-day plot - Wind Speed at 20 Meters Wind Speed at 20 meters (WSPD20M): 7.8 kts
5-day plot -  Wind Speed, Wind Gust and Atmospheric Pressure Combined plot of Wind Speed, Gust, and Air Pressure
NOS Water Level Observation Network Water Level
Previous observations
TIME
(EDT)
5-day plot - Wind Direction
WDIR
 
5-day plot - Wind Speed
WSPD
kts
5-day plot - Wind Gust
GST
kts
5-day plot - Wave Height
WVHT
ft
5-day plot - Dominant Wave Period
DPD
sec
5-day plot - Average Wave Period
APD
sec
5-day plot - Mean Wave Direction
MWD
 
5-day plot - Atmospheric Pressure
PRES
in
5-day plot - Pressure Tendency
PTDY
in
5-day plot - Air Temperature
ATMP
°F
5-day plot - Water Temperature
WTMP
°F
5-day plot - Dew Point
DEWP
°F
5-day plot - Salinity
SAL
psu
5-day plot - Visibility
VIS
nmi
5-day plot - Tide (above MLLW)
TIDE
ft
2024-04-15 10:42 amWNW 9.9 13.0----30.04- 76.8 64.8----
2024-04-15 10:36 am W 8.0 12.0----30.04- 76.3 64.8----
2024-04-15 10:30 amWNW 7.0 9.9----30.04-- 64.8----
2024-04-15 10:24 am W 8.9 9.9----30.04-- 64.8----
2024-04-15 10:18 am W 6.0 9.9----30.04- 75.0 64.8----
2024-04-15 10:12 amWNW 5.1 8.9----30.04- 74.8 64.8----
2024-04-15 10:06 am W 6.0 8.0----30.04- 74.1 64.8----
2024-04-15 10:00 am W 7.0 9.9----30.04+0.03 73.6 64.8----
2024-04-15 09:54 amWNW 5.1 8.0----30.03- 73.4 64.8----
2024-04-15 09:48 am W 4.1 8.9----30.03- 72.9 64.8----
2024-04-15 09:42 am W 5.1 8.0----30.03- 72.5 64.8----
2024-04-15 09:36 amWNW 6.0 8.0----30.03- 72.1 64.8----
2024-04-15 09:30 am W 5.1 8.0----30.03- 71.6 64.8----
2024-04-15 09:24 am W 6.0 9.9----30.03- 71.2 64.8----
2024-04-15 09:18 am W 7.0 8.9----30.03- 70.7 64.8----
2024-04-15 09:12 amWSW 7.0 9.9----30.03- 70.2 64.8----
2024-04-15 09:06 am W 8.9 11.1----30.03- 69.6 64.8----
2024-04-15 09:00 amWSW 8.0 11.1----30.03+0.04 69.3 64.8----
2024-04-15 08:54 am W 6.0 12.0----30.03- 68.9 64.8----
2024-04-15 08:48 am W 8.0 12.0----30.03- 68.5 64.6----
2024-04-15 08:42 amWSW 8.9 13.0----30.03- 68.2 64.6----
2024-04-15 08:36 am W 7.0 12.0----30.03- 67.8 64.6----
2024-04-15 08:30 amWSW 8.0 9.9----30.03- 67.3 64.6----
2024-04-15 08:24 amWSW 7.0 9.9----30.03- 67.1 64.6----
2024-04-15 08:18 amWSW 7.0 8.9----30.03- 66.6 64.6----
2024-04-15 08:12 amWSW 7.0 11.1----30.03- 66.2 64.6----
2024-04-15 08:06 amWSW 8.0 12.0----30.03- 66.2 64.6----
2024-04-15 08:00 amWSW 8.0 9.9----30.03+0.04 65.8 64.6----
2024-04-15 07:54 amWSW 8.0 11.1----30.03- 65.7 64.6----
2024-04-15 07:48 amWSW 8.0 11.1----30.03- 65.5 64.6----
2024-04-15 07:42 amWSW 7.0 9.9----30.03- 65.3 64.6----
2024-04-15 07:36 amWSW 8.0 9.9----30.03- 65.3 64.6----
2024-04-15 07:30 amWSW 7.0 8.9----30.03- 65.1 64.6----
2024-04-15 07:24 am SW 8.9 11.1----30.02- 65.3 64.6----
2024-04-15 07:18 am SW 8.9 12.0----30.02- 65.3 64.6----
2024-04-15 07:12 am SW 8.0 11.1----30.02- 65.3 64.8----
2024-04-15 07:06 amWSW 8.0 9.9----30.01- 65.3 64.8----
2024-04-15 07:00 am SW 8.0 13.0----30.01+0.03 65.5 64.8----
2024-04-15 06:54 amWSW 8.0 12.0----30.01- 65.5 64.8----
2024-04-15 06:48 amWSW 7.0 11.1----30.01- 65.3 64.8----
2024-04-15 06:42 am SW 9.9 11.1----30.01- 65.8 64.8----
2024-04-15 06:36 am SW 8.9 11.1----30.00- 65.8 64.8----
2024-04-15 06:30 am SW 9.9 12.0----30.00- 65.8 64.8----
2024-04-15 06:24 am SW 9.9 11.1----30.00- 66.0 64.8----
2024-04-15 06:18 am SW 11.1 12.0----29.99- 66.0 64.8----
2024-04-15 06:12 am SW 11.1 13.0----29.99- 66.2 64.8----
2024-04-15 06:06 am SW 9.9 12.0----29.99- 66.2 64.8----
2024-04-15 06:00 am SW 9.9 13.0----29.99+0.00 66.0 64.8----
2024-04-15 05:54 am SW 11.1 13.0----29.99- 66.2 64.8----
2024-04-15 05:48 am SW 9.9 12.0----29.99- 66.2 64.8----
2024-04-15 05:42 am SW 9.9 12.0----29.99- 66.2 64.8----
2024-04-15 05:36 am SW 11.1 13.0----29.99- 66.4 64.8----
2024-04-15 05:30 am SW 11.1 12.0----29.99- 66.4 64.8----
2024-04-15 05:24 am SW 9.9 12.0----29.99- 66.4 64.8----
2024-04-15 05:18 am SW 11.1 12.0----29.99- 66.4 64.8----
2024-04-15 05:12 am SW 9.9 12.0----29.99- 66.4 64.8----
2024-04-15 05:06 am SW 11.1 13.0----29.99- 66.6 64.8----
2024-04-15 05:00 am SW 12.0 13.0----29.99-0.01 66.6 64.8----
2024-04-15 04:54 am SW 11.1 13.0----29.98- 66.7 64.8----
2024-04-15 04:48 am SW 11.1 12.0----29.98- 66.7 64.8----
2024-04-15 04:42 am SW 11.1 13.0----29.98- 66.9 64.9----
2024-04-15 04:36 am SW 12.0 13.0----29.98- 67.3 64.9----
2024-04-15 04:30 am SW 12.0 14.0----29.98- 67.3 64.9----
2024-04-15 04:24 am SW 12.0 13.0----29.98- 67.3 64.9----
2024-04-15 04:18 am SW 11.1 14.0----29.98- 67.3 64.9----
2024-04-15 04:12 am SW 12.0 14.0----29.98- 67.5 64.9----
2024-04-15 04:06 am SW 11.1 14.0----29.98- 67.5 64.9----
2024-04-15 04:00 am SW 11.1 15.0----29.98-0.04 67.5 64.9----
2024-04-15 03:54 am SW 11.1 13.0----29.98- 67.5 64.9----
2024-04-15 03:48 am SW 11.1 13.0----29.98- 67.5 64.9----
2024-04-15 03:42 am SW 9.9 11.1----29.98- 67.1 64.9----
2024-04-15 03:36 am SW 8.9 9.9----29.98- 66.9 64.9----
2024-04-15 03:30 am SW 8.9 11.1----29.98- 66.9 64.9----
2024-04-15 03:24 am SW 8.9 11.1----29.98- 66.7 64.9----
2024-04-15 03:18 am SW 8.9 9.9----29.98- 66.6 64.9----
2024-04-15 03:12 am SW 8.9 9.9----29.98- 66.7 64.9----
2024-04-15 03:06 am SW 8.9 9.9----29.98- 66.7 64.9----
2024-04-15 03:00 am SW 8.0 9.9----29.98-0.04 66.6 64.9----
2024-04-15 02:54 am SW 8.9 9.9----29.98- 66.4 64.9----
2024-04-15 02:48 am SW 8.9 9.9----29.98- 66.4 64.9----
2024-04-15 02:42 am SW 9.9 11.1----29.99- 66.4 64.9----
2024-04-15 02:36 amSSW 9.9 11.1----29.99- 66.2 64.9----
2024-04-15 02:30 amSSW 9.9 11.1----29.99- 66.2 64.9----
2024-04-15 02:24 amSSW 9.9 11.1----29.99- 66.2 64.9----
2024-04-15 02:18 amSSW 9.9 12.0----29.99- 66.0 64.9----
2024-04-15 02:12 amSSW 11.1 12.0----30.00- 66.0 64.9----
2024-04-15 02:06 amSSW 11.1 12.0----30.00- 66.0 64.9----
2024-04-15 02:00 amSSW 11.1 13.0----30.00-0.02 66.0 64.9----
2024-04-15 01:54 amSSW 12.0 13.0----30.00- 66.2 64.9----
2024-04-15 01:48 amSSW 12.0 14.0----30.00- 66.0 64.9----
2024-04-15 01:42 amSSW 12.0 13.0----30.01- 66.0 64.9----
2024-04-15 01:36 am SW 11.1 13.0----30.01- 66.0 64.9----
2024-04-15 01:30 am SW 11.1 12.0----30.01- 66.0 64.9----
2024-04-15 01:24 am SW 11.1 13.0----30.02- 66.0 64.9----
2024-04-15 01:18 am SW 11.1 12.0----30.02- 66.0 64.9----
2024-04-15 01:12 amSSW 12.0 13.0----30.02- 66.0 65.1----
2024-04-15 01:06 amSSW 12.0 13.0----30.02- 66.0 65.1----
2024-04-15 01:00 amSSW 12.0 14.0----30.02-0.01 66.0 65.1----
2024-04-15 12:54 amSSW 12.0 13.0----30.02- 66.0 65.1----
2024-04-15 12:48 amSSW 12.0 13.0----30.02- 66.2 65.1----
2024-04-15 12:42 amSSW 12.0 14.0----30.02- 66.2 65.1----
2024-04-15 12:36 amSSW 12.0 14.0----30.02- 66.2 65.1----
2024-04-15 12:30 amSSW 12.0 14.0----30.02- 66.2 65.1----
2024-04-15 12:24 amSSW 13.0 14.0----30.02- 66.2 65.1----
2024-04-15 12:18 amSSW 13.0 13.0----30.02- 66.2 65.1----
2024-04-15 12:12 amSSW 12.0 14.0----30.02- 66.2 65.3----
2024-04-15 12:06 amSSW 13.0 13.0----30.02- 66.2 65.3----
2024-04-15 12:00 am SW 12.0 13.0----30.02+0.00 66.2 65.3----
2024-04-14 11:54 pm SW 12.0 15.0----30.03- 66.2 65.3----
2024-04-14 11:48 pm SW 12.0 15.0----30.02- 66.2 65.3----
2024-04-14 11:42 pm SW 13.0 14.0----30.02- 66.4 65.3----
2024-04-14 11:36 pm SW 12.0 14.0----30.02- 66.4 65.3----
2024-04-14 11:30 pm SW 12.0 14.0----30.02- 66.2 65.3----
2024-04-14 11:24 pm SW 12.0 14.0----30.02- 66.4 65.3----
2024-04-14 11:18 pm SW 13.0 14.0----30.02- 66.4 65.3----
2024-04-14 11:12 pm SW 12.0 14.0----30.02- 66.4 65.3----
2024-04-14 11:06 pm SW 12.0 14.0----30.02- 66.2 65.3----
2024-04-14 11:00 pm SW 13.0 14.0----30.03+0.00 66.2 65.3----
2024-04-14 10:54 pmSSW 13.0 14.0----30.03- 66.2 65.3----
2024-04-14 10:48 pmSSW 12.0 13.0----30.03- 66.4 65.3----
2024-04-14 10:42 pmSSW 12.0 14.0----30.03- 66.4 65.3----
2024-04-14 10:36 pmSSW 13.0 15.0----30.03- 66.4 65.3----
2024-04-14 10:30 pmSSW 13.0 15.0----30.03- 66.4 65.3----
2024-04-14 10:24 pmSSW 13.0 15.0----30.03- 66.4 65.3----
2024-04-14 10:18 pmSSW 14.0 15.9----30.03- 66.6 65.5----
2024-04-14 10:12 pmSSW 15.0 15.9----30.03- 66.7 65.5----
2024-04-14 10:06 pmSSW 15.0 17.1----30.03- 66.7 65.5----
2024-04-14 10:00 pmSSW 15.0 15.9----30.03+0.00 66.7 65.5----
2024-04-14 09:54 pmSSW 14.0 17.1----30.03- 66.7 65.5----
2024-04-14 09:48 pmSSW 14.0 15.9----30.03- 66.9 65.7----
2024-04-14 09:42 pmSSW 13.0 14.0----30.03- 66.7 65.7----
2024-04-14 09:36 pmSSW 12.0 15.0----30.03- 66.7 65.7----
2024-04-14 09:30 pmSSW 13.0 15.0----30.03- 66.9 65.8----
2024-04-14 09:24 pmSSW 13.0 13.0----30.03- 66.6 65.8----
2024-04-14 09:18 pmSSW 13.0 14.0----30.03- 66.6 65.8----
2024-04-14 09:12 pmSSW 13.0 14.0----30.03- 66.6 65.8----
2024-04-14 09:06 pmSSW 13.0 15.0----30.03- 66.7 65.8----
2024-04-14 09:00 pmSSW 14.0 15.9----30.03-0.02 66.7 65.8----
2024-04-14 08:54 pmSSW 14.0 17.1----30.02- 66.9 65.8----
2024-04-14 08:48 pmSSW 15.0 15.9----30.02-- 65.8----
2024-04-14 08:42 pmSSW 15.0 15.9----30.02-- 65.8----
2024-04-14 08:36 pmSSW 13.0 15.9----30.02-- 66.0----
2024-04-14 08:30 pm-------30.02- 66.9 65.8----
2024-04-14 08:24 pm-------30.02- 66.9 65.8----
2024-04-14 08:18 pmSSW 15.0 17.1------ 67.1 66.0----
2024-04-14 08:12 pmSSW 15.0 15.9------ 67.1 66.0----
2024-04-14 08:06 pmSSW 14.0 18.1------ 67.3 66.0----
2024-04-14 08:00 pmSSW 15.0 17.1----30.02-0.03 67.1 66.2----
2024-04-14 07:54 pmSSW 15.0 17.1----30.02- 66.9 66.4----
2024-04-14 07:48 pmSSW 15.0 17.1----30.02- 66.9 66.4----
2024-04-14 07:42 pmSSW 15.0 15.9----30.02- 66.9 66.4----
2024-04-14 07:36 pmSSW 13.0 15.0----30.02- 66.7 66.6----
2024-04-14 07:30 pmSSW 14.0 15.9----30.02- 66.7 66.6----
2024-04-14 07:24 pmSSW 13.0 14.0----30.02- 66.7 66.7----
2024-04-14 07:00 pmSSW 11.1 13.0----30.03-0.04- 67.1----
2024-04-14 06:54 pm S 12.0 13.0----30.03-- 67.1----
2024-04-14 06:48 pmSSW 9.9 12.0----30.03- 67.3 67.1----
2024-04-14 06:42 pmSSW 11.1 12.0----30.03- 67.5 67.1----
2024-04-14 06:36 pmSSW 11.1 12.0----30.03- 67.5 67.3----
2024-04-14 06:30 pmSSW 9.9 12.0----30.03- 67.5 67.3----
2024-04-14 06:24 pm S 11.1 12.0----30.03- 67.5 67.3----
2024-04-14 06:18 pm S 9.9 11.1----30.04- 67.6 67.5----
2024-04-14 06:12 pm S 9.9 11.1----30.04- 67.6 67.5----
2024-04-14 06:06 pm S 9.9 12.0----30.04- 67.6 67.3----
2024-04-14 06:00 pm S 9.9 12.0----30.05-0.05 67.6 67.1----
2024-04-14 05:54 pm S 9.9 11.1----30.05- 67.8 67.1----
2024-04-14 05:48 pmSSW 8.0 8.9----30.05-- 67.3----
2024-04-14 05:42 pmSSW 8.0 9.9----30.05-- 67.3----
2024-04-14 05:36 pmSSW 8.0 9.9----30.05-- 67.1----
2024-04-14 05:30 pmSSW 8.9 9.9----30.06-- 67.1----
2024-04-14 05:24 pmSSW 8.9 9.9----30.05-- 66.9----
2024-04-14 05:18 pmSSW 8.9 9.9----30.05- 68.0 66.9----
2024-04-14 05:12 pmSSW 8.9 9.9----30.05- 68.0 67.1----
2024-04-14 05:06 pm S 8.9 9.9----30.05- 68.0 67.1----
2024-04-14 05:00 pm S 7.0 8.9----30.05-0.07 67.8 67.3----
2024-04-14 04:54 pm S 8.0 8.9----30.06- 67.8 67.3----
2024-04-14 04:48 pm S 8.0 8.9----30.06- 67.8 67.3----
2024-04-14 04:42 pm S 8.9 9.9----30.06- 67.8 67.5----
2024-04-14 04:36 pm S 8.9 9.9----30.06- 67.8 67.5----
2024-04-14 04:30 pmSSW 7.0 8.0----30.06- 67.8 67.5----
2024-04-14 04:24 pmSSW 6.0 7.0----30.06- 67.8 67.5----
2024-04-14 04:18 pmSSW 6.0 7.0----30.06- 67.8 67.5----
2024-04-14 04:12 pmSSW 6.0 8.0----30.07- 67.8 67.5----
2024-04-14 04:06 pmSSW 7.0 7.0----30.07- 67.6 67.5----
2024-04-14 04:00 pm S 7.0 8.0----30.07-0.08 67.6 67.3----
2024-04-14 03:54 pmSSW 8.0 8.9----30.08- 67.5 67.1----
2024-04-14 03:48 pmSSW 7.0 8.0----30.08- 67.5 67.1----
2024-04-14 03:42 pmSSW 8.0 8.0----30.08- 67.5 66.9----
2024-04-14 03:36 pmSSW 7.0 8.0----30.09- 67.5 66.7----
2024-04-14 03:30 pmSSW 7.0 8.0----30.09- 67.3 66.6----
2024-04-14 03:24 pmSSW 8.0 8.9----30.09- 67.3 66.7----
2024-04-14 03:18 pmSSW 7.0 8.0----30.09- 67.1 66.4----
2024-04-14 03:12 pmSSW 7.0 8.9----30.09- 66.9 66.4----
2024-04-14 03:06 pmSSW 8.0 8.9----30.10- 66.7 66.4----
2024-04-14 03:00 pmSSW 8.0 8.9----30.10-0.06------
2024-04-14 02:54 pmSSW 7.0 8.0----30.10-------
2024-04-14 02:48 pmSSW 7.0 8.0----30.11- 66.6 66.6----
2024-04-14 02:42 pmSSW 7.0 7.0----30.11- 66.6 66.6----
2024-04-14 02:36 pmSSW 6.0 7.0----30.11- 66.6 66.6----
2024-04-14 02:30 pmSSW 6.0 7.0----30.11- 66.4 66.2----
2024-04-14 02:24 pm S 7.0 8.0----30.11- 66.4 65.8----
2024-04-14 02:18 pmSSW 6.0 7.0----30.12- 66.2 65.7----
2024-04-14 02:12 pmSSW 6.0 7.0----30.12- 66.2 65.5----
2024-04-14 02:06 pm S 7.0 7.0----30.12- 66.2 65.5----
2024-04-14 02:00 pm S 7.0 8.0----30.13-0.04 66.2 65.7----
2024-04-14 01:54 pm S 6.0 7.0----30.13- 66.0 65.7----
2024-04-14 01:48 pm S 6.0 6.0----30.13- 66.0 65.7----
2024-04-14 01:42 pm S 5.1 6.0----30.14- 66.0 65.5----
2024-04-14 01:36 pm S 6.0 6.0----30.14- 66.0 65.5----
2024-04-14 01:30 pm S 5.1 6.0----30.14- 66.0 65.3----
2024-04-14 01:24 pm S 5.1 6.0----30.14- 65.8 65.3----
2024-04-14 01:18 pm S 5.1 6.0----30.14- 65.8 65.3----
2024-04-14 01:12 pm S 5.1 5.1----30.15- 65.7 65.3----
2024-04-14 01:06 pm S 5.1 5.1----30.15- 65.7 65.1----
2024-04-14 01:00 pm S 2.9 5.1----30.15-0.02 65.8 65.1----
2024-04-14 12:54 pmSSE 4.1 5.1----30.15- 65.8 65.1----
2024-04-14 12:48 pmSSE 4.1 5.1----30.15-- 64.9----
2024-04-14 12:42 pm SE 4.1 5.1----30.15-- 64.9----
2024-04-14 12:36 pm SE 5.1 5.1----30.15-- 64.8----
2024-04-14 12:30 pmSSE 5.1 6.0----30.15-- 64.8----
2024-04-14 12:24 pmSSE 4.1 5.1----30.16-- 64.8----
2024-04-14 12:18 pmSSE 5.1 6.0----30.16- 65.7 64.8----
2024-04-14 12:12 pmSSE 4.1 4.1----30.16- 65.3 64.6----
2024-04-14 12:06 pmSSE 4.1 6.0----30.16- 65.3 64.6----
2024-04-14 12:00 pmSSE 2.9 4.1----30.16+0.01 65.7 64.6----
2024-04-14 11:54 amSSE 5.1 5.1----30.16- 65.5 64.4----
2024-04-14 11:48 amSSE 4.1 4.1----30.17- 66.0 64.4----
2024-04-14 11:42 am SE 2.9 4.1----30.17- 66.9 64.4----
2024-04-14 11:36 am SE 1.9 4.1----30.17- 67.8 64.4----
2024-04-14 11:30 am SE 4.1 5.1----30.17-- 64.4----
2024-04-14 11:24 am SE 2.9 2.9----30.17-- 64.2----
2024-04-14 11:18 am SE 1.9 2.9----30.17-- 64.2----
2024-04-14 11:12 am SE 4.1 4.1----30.17-- 64.2----
2024-04-14 11:06 am SE 4.1 5.1----30.17-- 64.2----
2024-04-14 11:00 am SE 4.1 5.1----30.17+0.02 65.5 64.2----
2024-04-14 10:54 amESE 2.9 2.9----30.17- 66.9 64.2----